User: anonymous   Login
Location: Oshawa
(43.9000°N, 78.8670°W)
Time: 23:23:49
(UTC-04:00)
Language:

ITAMSAT 1 - Orbit

View from above orbital plane
View from above orbital plane
View from above satellite
View from above satellite

Ground track
Ground track

The orbit data is extracted from the following two-line orbital elements,

1 22826U 93061D   17115.89823176 +.00000025 +00000-0 +27077-4 0  9992
2 22826 098.8014 080.9402 0009955 111.8419 248.3823 14.30321977229851
Epoch (UTC): 25 April 2017 21:33:27
Eccentricity: 0.0009955
inclination: 98.8014°
perigee height: 783 km
apogee height: 798 km
right ascension of ascending node: 80.9402°
argument of perigee: 111.8419°
revolutions per day: 14.30321977
mean anomaly at epoch: 248.3823°
orbit number at epoch: 22985

The dashed part of the orbit path shows where the satellite is in the earth's shadow,  

DLR